CFG449 EDDM-LSGG

Flight info

Callsign CFG449
Flight time N/A
Altitude 30000
Route ALG2E/08R ALG Y109 UMTEX/N0426F310 Y100 TRA DCT LUTIX DCT BENOT BENOT1N
Aircraft A321/M-SDE3FGHIRWY/LB1

Departure

Time N/A
Airport Munich Airport (EDDM)

Arrival

Time 2026-05-01 07:53
Airport Geneva International Airport (LSGG)
Time Latitude Longitude Altitude Speed Heading
2026-05-01 07:23 47.58283 8.21685 31329 ft 445 kts 234°
2026-05-01 07:24 47.52846 8.10532 31330 ft 445 kts 234°
2026-05-01 07:24 47.49222 8.03103 31328 ft 445 kts 234°
2026-05-01 07:25 47.45597 7.95692 31320 ft 445 kts 234°
2026-05-01 07:25 47.41988 7.88338 31323 ft 445 kts 234°
2026-05-01 07:26 47.38323 7.80904 31321 ft 445 kts 234°
2026-05-01 07:26 47.34670 7.73537 31322 ft 445 kts 234°
2026-05-01 07:27 47.31025 7.66183 31325 ft 444 kts 234°
2026-05-01 07:27 47.27398 7.58873 31324 ft 444 kts 234°
2026-05-01 07:28 47.23740 7.51544 31325 ft 444 kts 233°
2026-05-01 07:28 47.20079 7.44218 31309 ft 444 kts 233°
2026-05-01 07:29 47.16427 7.36920 31269 ft 441 kts 233°
2026-05-01 07:29 47.14578 7.33328 30727 ft 439 kts 232°
2026-05-01 07:29 47.12692 7.29814 30165 ft 437 kts 231°
2026-05-01 07:29 47.10790 7.26355 29642 ft 433 kts 230°
2026-05-01 07:30 47.08897 7.22948 29134 ft 429 kts 230°
2026-05-01 07:30 47.07024 7.19577 28616 ft 425 kts 230°
2026-05-01 07:30 47.05174 7.16225 28111 ft 421 kts 230°
2026-05-01 07:30 47.03353 7.12901 27618 ft 417 kts 230°
2026-05-01 07:31 47.01552 7.09593 27155 ft 413 kts 231°
2026-05-01 07:31 46.96257 6.99872 25802 ft 401 kts 230°
2026-05-01 07:32 46.92793 6.93572 24936 ft 393 kts 230°
2026-05-01 07:32 46.91071 6.90492 24508 ft 389 kts 226°
2026-05-01 07:33 46.87359 6.84830 23593 ft 383 kts 224°
2026-05-01 07:33 46.85523 6.82042 23165 ft 379 kts 224°
2026-05-01 07:33 46.81905 6.76554 22286 ft 371 kts 224°
2026-05-01 07:34 46.80123 6.73857 21853 ft 368 kts 224°
2026-05-01 07:34 46.76589 6.68524 20978 ft 363 kts 224°
2026-05-01 07:34 46.74835 6.65884 20531 ft 362 kts 224°
2026-05-01 07:35 46.73087 6.63256 20090 ft 360 kts 224°
2026-05-01 07:35 46.71350 6.60640 19649 ft 358 kts 224°
2026-05-01 07:35 46.70204 6.58910 19360 ft 358 kts 224°
2026-05-01 07:35 46.68478 6.56312 18928 ft 356 kts 224°
2026-05-01 07:36 46.66756 6.53728 18459 ft 355 kts 224°
2026-05-01 07:36 46.65035 6.51154 18011 ft 353 kts 224°
2026-05-01 07:36 46.63329 6.48603 17583 ft 351 kts 224°
2026-05-01 07:36 46.61633 6.46066 17160 ft 348 kts 224°
2026-05-01 07:37 46.58276 6.41053 16338 ft 344 kts 224°
2026-05-01 07:37 46.56613 6.38572 15923 ft 342 kts 224°
2026-05-01 07:37 46.54961 6.36104 15542 ft 340 kts 224°
2026-05-01 07:38 46.53318 6.33653 15163 ft 338 kts 224°
2026-05-01 07:38 46.51666 6.31203 14914 ft 341 kts 224°
2026-05-01 07:38 46.48342 6.26307 14373 ft 339 kts 224°
2026-05-01 07:39 46.46694 6.23881 14105 ft 337 kts 224°
2026-05-01 07:39 46.45053 6.21462 13818 ft 335 kts 224°
2026-05-01 07:39 46.41796 6.16664 13283 ft 332 kts 224°
2026-05-01 07:40 46.40176 6.14283 13037 ft 331 kts 224°
2026-05-01 07:40 46.38566 6.11917 12767 ft 328 kts 224°
2026-05-01 07:40 46.36963 6.09566 12504 ft 327 kts 224°
2026-05-01 07:40 46.35370 6.07230 12246 ft 325 kts 224°
2026-05-01 07:41 46.33784 6.04902 11985 ft 324 kts 225°
2026-05-01 07:41 46.32205 6.02590 11727 ft 322 kts 224°
2026-05-01 07:41 46.29069 5.98012 11220 ft 318 kts 224°
2026-05-01 07:42 46.27541 5.95784 10968 ft 316 kts 224°
2026-05-01 07:42 46.25997 5.93534 10709 ft 314 kts 224°
2026-05-01 07:42 46.24474 5.91316 10508 ft 306 kts 224°
2026-05-01 07:42 46.23005 5.89174 10361 ft 295 kts 224°
2026-05-01 07:43 46.21575 5.87093 10185 ft 288 kts 224°
2026-05-01 07:43 46.20167 5.85053 9946 ft 286 kts 224°
2026-05-01 07:43 46.17370 5.80991 9408 ft 285 kts 224°
2026-05-01 07:44 46.14550 5.76899 8553 ft 286 kts 224°
2026-05-01 07:44 46.11807 5.72947 8178 ft 268 kts 220°
2026-05-01 07:45 46.10227 5.71717 8034 ft 254 kts 190°
2026-05-01 07:45 46.08524 5.71831 7880 ft 244 kts 159°
2026-05-01 07:45 46.07109 5.73124 7714 ft 243 kts 135°
2026-05-01 07:45 46.05900 5.74829 7492 ft 245 kts 133°
2026-05-01 07:46 46.04901 5.76908 6944 ft 253 kts 113°
2026-05-01 07:46 46.04500 5.79306 6723 ft 250 kts 93°
2026-05-01 07:46 46.05394 5.83891 6240 ft 235 kts 55°
2026-05-01 07:47 46.06478 5.85611 5943 ft 229 kts 46°
2026-05-01 07:47 46.07581 5.87209 5663 ft 220 kts 46°
2026-05-01 07:47 46.08623 5.88723 5385 ft 206 kts 45°
2026-05-01 07:47 46.09608 5.90156 5115 ft 197 kts 46°
2026-05-01 07:48 46.11460 5.92852 4622 ft 183 kts 46°
2026-05-01 07:48 46.12344 5.94140 4373 ft 178 kts 46°
2026-05-01 07:48 46.13201 5.95388 4142 ft 173 kts 46°
2026-05-01 07:49 46.14041 5.96614 3908 ft 170 kts 46°
2026-05-01 07:49 46.15698 5.99032 3465 ft 164 kts 45°
2026-05-01 07:49 46.16485 6.00181 3273 ft 157 kts 45°
2026-05-01 07:50 46.17214 6.01244 3055 ft 146 kts 45°
2026-05-01 07:50 46.18608 6.03282 2653 ft 139 kts 45°
2026-05-01 07:50 46.19297 6.04290 2458 ft 140 kts 45°
2026-05-01 07:51 46.19974 6.05280 2262 ft 142 kts 45°
2026-05-01 07:51 46.20671 6.06301 2059 ft 144 kts 45°
2026-05-01 07:51 46.21371 6.07329 1874 ft 143 kts 44°
2026-05-01 07:52 46.22723 6.09313 1453 ft 135 kts 45°
2026-05-01 07:52 46.23322 6.10187 1400 ft 99 kts 45°
2026-05-01 07:52 46.23687 6.10718 1380 ft 54 kts 45°
2026-05-01 07:53 46.23821 6.11074 1378 ft 12 kts 164°
2026-05-01 07:53 46.23797 6.11080 1377 ft 0 kts 170°
2026-05-01 07:55 46.23755 6.11089 1382 ft 3 kts 176°
2026-05-01 07:55 46.23707 6.11074 1385 ft 4 kts 198°
2026-05-01 07:56 46.23582 6.11158 1398 ft 7 kts 192°
2026-05-01 07:56 46.23487 6.11039 1397 ft 9 kts 225°
2026-05-01 07:57 46.23442 6.10971 1399 ft 10 kts 226°
2026-05-01 07:57 46.23353 6.10840 1398 ft 8 kts 225°
2026-05-01 07:58 46.23261 6.10778 1393 ft 7 kts 197°
2026-05-01 07:58 46.23241 6.10690 1393 ft 4 kts 266°
2026-05-01 07:59 46.23239 6.10603 1401 ft 4 kts 270°
2026-05-01 07:59 46.23265 6.10548 1402 ft 4 kts 315°
2026-05-01 08:00 46.23261 6.10441 1396 ft 5 kts 213°
2026-05-01 08:01 46.23149 6.10437 1393 ft 0 kts 181°
2026-05-01 08:02 46.23055 6.10612 1398 ft 0 kts 135°